Wind_Speed
9 4 4 6 6 8 9 10 9 8 9 9 9 9 9 8 7 8 8 8 8 9 9 10 11 14 16 17 19 21 22 24 24 19 17 16 17 18 19 20 20 20 19 18
9 7 9 11 12 10 8 5 3 2 2 3 4 5 5 6 7 9 10 11 11 11 12 14 17 18 19 19 20 20 21 22 20 19 17 16 17 19 19 19 19 20 20 21
14 14 14 14 13 12 10 8 6 5 4 3 2 1 1 2 3 5 7 9 11 13 14 15 17 18 18 17 17 18 18 18 18 18 18 19 20 20 20 21 21 21 21 21
20 18 16 15 14 14 14 12 10 9 8 7 7 6 4 3 3 4 5 6 7 8 9 10 12 13 13 13 14 15 16 17 19 20 20 20 20 21 21 22 22 23 23 23
23 20 18 17 16 16 16 15 14 13 12 12 12 11 10 8 5 3 3 2 2 3 5 7 8 9 11 12 13 15 16 17 18 19 19 20 20 21 21 22 22 22 23 22
24 21 20 18 17 16 16 16 15 14 13 13 12 11 10 10 8 6 5 4 2 1 3 5 7 9 11 13 14 15 16 16 17 18 19 19 20 20 21 21 21 21 21 21
23 21 20 17 16 15 15 15 14 13 13 12 11 11 11 10 9 7 5 3 3 4 6 8 9 11 12 14 15 15 16 17 17 18 19 19 20 20 20 20 20 20 20 20
19 18 16 14 13 12 11 12 12 11 11 11 11 11 10 9 8 7 6 5 6 7 8 10 11 12 14 15 16 16 17 18 18 19 20 19 19 18 18 18 18 18 19 20
16 14 13 11 10 9 8 8 9 9 9 10 11 10 10 9 8 8 8 9 9 10 11 11 12 13 14 16 17 18 19 19 20 20 19 18 17 16 15 15 17 18 20 21
12 10 8 7 6 5 4 5 6 7 8 9 9 9 8 8 8 9 10 11 11 11 12 13 13 14 15 16 18 19 19 19 19 18 17 16 15 14 15 16 17 19 20 21
11 8 6 4 3 3 3 3 4 5 5 7 7 7 7 7 9 10 11 11 12 13 14 14 15 15 16 17 17 17 17 16 15 14 14 13 13 13 14 16 18 19 19 20
14 9 6 5 3 2 2 2 3 3 3 4 4 5 6 7 9 10 11 12 13 15 16 16 16 17 18 18 17 16 15 15 14 14 13 12 11 12 14 16 17 17 18 18
21 14 8 5 2 1 2 2 2 2 1 1 1 3 4 6 7 9 11 12 14 16 17 17 17 18 19 19 18 17 17 16 15 14 13 13 12 14 15 16 16 16 16 16
29 22 14 9 2 2 3 2 3 4 4 3 1 1 3 5 6 8 10 12 14 16 17 17 18 19 19 18 18 18 18 17 16 16 15 15 15 15 16 16 16 16 16 16
31 29 22 14 6 3 5 4 3 5 6 5 4 2 2 4 5 7 9 11 13 15 16 16 17 19 19 18 17 18 18 19 18 18 17 17 17 17 17 17 17 17 17 17
30 31 28 21 12 2 5 5 4 5 6 6 5 4 2 3 5 6 8 10 12 14 15 15 16 18 19 18 17 17 18 19 19 19 19 19 19 19 19 19 19 18 18 18
26 29 30 26 18 8 1 4 5 6 6 7 8 7 5 4 4 5 7 9 11 12 13 14 15 16 17 17 17 17 17 18 18 18 19 20 20 20 21 21 21 20 20 20
21 24 27 27 23 14 6 3 5 7 8 9 10 9 8 7 6 5 5 7 9 11 12 13 13 14 15 16 16 16 16 16 17 17 18 19 19 20 20 21 22 22 22 22
18 20 23 25 24 20 14 8 6 7 9 10 11 11 11 10 9 6 4 4 7 9 10 11 12 12 13 13 14 15 15 16 16 16 16 17 17 18 19 20 21 22 22 23
15 16 18 21 23 22 19 16 11 8 9 11 12 12 12 12 11 9 6 3 4 6 8 9 10 10 10 11 12 13 14 15 15 15 15 15 15 16 17 18 19 20 21 22
14 14 16 18 19 20 21 19 17 13 11 11 12 13 13 13 12 11 9 6 4 4 6 7 8 8 8 9 10 11 13 13 14 15 15 15 14 15 16 16 17 17 18 19
14 14 15 16 17 19 20 20 20 18 16 13 12 14 15 15 14 13 11 10 8 6 5 6 7 7 6 6 8 9 10 11 12 14 15 15 15 15 15 15 15 15 16 16
16 15 15 16 17 18 19 20 20 20 20 18 15 13 15 17 17 16 14 13 11 9 7 6 6 6 5 4 5 6 7 8 10 12 14 15 16 16 16 15 15 15 15 15
20 18 17 17 18 19 19 20 20 21 22 22 21 17 14 16 19 19 18 17 15 13 11 9 8 7 5 4 3 3 4 5 7 10 12 14 15 16 15 15 14 14 14 14
23 21 20 19 20 20 20 20 21 21 23 23 23 22 18 15 17 21 21 20 19 17 15 13 11 9 8 6 4 2 2 3 5 8 10 13 15 15 14 13 12 12 12 13
26 24 22 22 21 21 21 22 22 22 22 24 24 24 23 20 16 19 22 23 22 20 18 16 15 13 11 9 7 6 5 4 5 8 10 13 14 14 13 12 11 11 11 11
29 28 26 24 23 23 23 24 24 24 24 24 25 25 26 24 20 17 20 23 24 23 21 20 18 17 16 13 11 9 8 8 8 8 11 13 14 14 12 11 10 10 10 10
Wind_Direction
1 23 54 72 91 126 150 177 204 225 247 263 274 278 277 275 263 245 238 242 247 247 251 257 258 260 263 271 280 286 290 293 294 291 288 292 293 292 291 283 277 275 275 274
37 68 69 74 86 99 122 145 168 211 258 278 291 278 265 260 253 242 236 239 241 244 253 262 269 272 274 278 284 288 293 294 294 297 299 298 296 295 293 290 284 279 276 273
67 75 74 74 77 80 89 99 98 97 102 94 76 171 230 224 219 222 226 230 235 245 256 266 273 276 279 283 284 289 292 295 300 302 301 299 298 297 296 294 291 287 282 277
69 71 73 72 72 74 81 84 83 91 97 101 91 108 114 117 153 174 198 215 234 249 262 270 273 275 277 282 286 290 292 296 298 299 300 299 299 298 296 295 292 290 286 282
66 67 70 68 70 73 77 78 82 85 96 102 97 89 89 91 89 95 127 157 222 258 270 273 274 274 277 282 287 292 295 298 299 300 300 299 298 297 296 295 292 289 287 283
65 65 66 65 68 73 76 80 78 86 91 95 94 87 86 86 83 80 82 87 75 344 296 285 285 288 290 294 298 301 303 304 306 307 305 303 300 298 297 297 294 291 287 283
62 62 62 63 68 76 78 76 80 81 83 88 89 88 89 89 82 76 64 44 2 327 312 305 303 303 303 303 305 307 307 308 311 313 312 309 305 302 300 298 296 292 288 284
59 61 62 60 65 76 79 73 74 74 80 87 90 89 89 84 75 61 38 11 350 336 327 321 317 314 311 308 308 307 306 305 308 310 312 311 308 305 303 302 300 297 293 289
57 60 61 60 62 71 71 69 73 77 91 96 95 92 87 78 63 43 21 2 350 342 338 334 328 322 317 312 309 307 304 303 304 306 308 310 309 309 310 310 308 305 301 297
51 56 54 52 53 64 65 70 78 87 98 100 96 91 83 67 46 27 12 360 354 351 349 345 340 335 331 325 319 315 313 311 310 310 312 313 314 314 315 314 313 311 308 305
33 35 37 40 40 48 66 80 93 101 102 96 89 83 71 51 31 18 10 7 7 5 1 356 352 348 343 338 332 329 327 326 327 328 328 327 324 321 321 320 320 318 317 316
20 15 19 23 19 44 106 117 111 121 116 100 82 69 58 42 26 17 14 13 11 8 4 0 358 356 353 351 349 349 350 351 352 352 351 348 344 339 336 334 333 332 331 330
18 13 5 1 19 112 140 160 181 193 189 133 70 48 43 35 25 20 16 12 9 7 7 5 4 3 2 1 2 5 8 10 11 12 12 9 4 358 355 353 351 350 350 351
18 15 9 360 333 223 203 199 218 226 233 239 239 9 23 22 22 21 17 12 8 8 9 9 10 10 11 12 16 20 24 27 29 29 27 23 18 14 11 9 8 9 9 9
15 16 14 10 355 250 214 208 219 232 237 232 228 261 350 7 13 16 15 12 10 10 12 14 15 17 19 22 27 31 35 37 39 38 37 34 30 26 24 23 23 23 25 26
11 14 16 17 14 331 216 214 223 236 235 228 232 249 290 334 353 4 9 10 11 13 15 17 19 20 23 27 33 39 41 42 43 42 40 38 36 33 32 32 33 34 34 35
6 11 15 18 20 20 240 229 237 241 242 237 239 248 263 285 315 343 359 8 13 15 16 18 22 24 26 29 35 41 42 42 41 40 38 37 37 37 36 37 38 39 41 42
359 4 9 14 19 21 14 298 262 256 257 254 251 253 259 266 279 303 338 2 10 13 15 18 23 26 29 32 35 38 39 38 37 36 35 35 37 39 40 41 43 44 46 48
350 355 1 8 13 16 14 359 320 284 271 265 259 256 258 259 260 269 294 344 2 6 10 15 20 26 31 35 36 36 35 34 33 32 32 35 38 40 42 43 44 45 48 50
337 344 350 357 5 9 10 7 354 328 301 279 265 257 256 255 256 259 266 291 336 353 2 8 14 20 27 34 36 34 32 32 31 30 31 35 39 42 44 44 44 45 47 49
319 329 337 343 350 357 1 2 1 352 329 303 273 259 256 255 255 257 262 268 281 317 344 357 4 11 21 31 35 32 30 30 31 32 32 34 37 41 43 43 43 42 43 45
298 312 323 330 334 341 348 353 355 354 349 331 301 268 257 254 253 255 258 263 266 276 304 331 346 356 8 26 34 32 30 31 35 36 35 35 35 37 38 39 38 37 37 38
281 293 305 314 319 325 332 339 343 346 349 348 334 299 265 255 253 253 255 259 262 264 272 291 313 329 342 6 28 33 31 33 36 37 34 31 28 29 32 33 33 33 34 36
270 278 288 299 306 311 316 322 329 333 337 344 344 334 300 266 256 253 253 257 260 260 260 267 281 295 306 317 348 18 24 25 26 25 21 18 16 17 20 24 27 29 29 30
263 269 276 284 292 298 303 307 312 319 325 330 337 339 331 301 267 257 255 255 257 256 254 256 262 271 280 283 285 296 324 347 355 358 0 1 2 4 6 10 14 16 17 19
256 263 269 274 279 286 291 295 299 304 310 318 325 331 332 326 302 268 256 254 254 253 250 250 252 258 264 267 266 263 267 285 310 327 337 344 350 354 358 1 2 4 5 8
252 257 262 266 271 277 282 286 288 292 297 302 310 319 325 328 321 297 269 256 252 250 246 245 245 249 254 258 260 257 256 263 279 300 316 328 338 345 351 356 357 358 359 2
Height
5738 5738 5738 5740 5741 5743 5746 5749 5753 5756 5759 5762 5763 5764 5765 5766 5768 5771 5773 5776 5778 5781 5782 5784 5786 5787 5788 5787 5787 5785 5783 5780 5777 5774 5773 5773 5772 5770 5769 5767 5767 5766 5766 5765
5741 5741 5742 5743 5745 5747 5749 5751 5754 5756 5759 5760 5761 5762 5763 5764 5766 5768 5771 5774 5776 5777 5778 5779 5780 5780 5781 5781 5781 5780 5778 5775 5772 5769 5769 5768 5767 5766 5764 5762 5761 5760 5760 5760
5747 5747 5747 5749 5750 5751 5753 5755 5757 5758 5760 5760 5761 5761 5761 5763 5765 5767 5769 5770 5772 5774 5775 5775 5776 5775 5776 5776 5776 5775 5773 5771 5768 5767 5765 5764 5762 5761 5759 5757 5755 5754 5754 5753
5754 5755 5755 5757 5756 5757 5757 5758 5759 5760 5761 5761 5762 5761 5762 5763 5764 5766 5767 5769 5771 5772 5773 5773 5773 5773 5773 5773 5772 5771 5770 5767 5765 5763 5761 5759 5757 5755 5753 5752 5750 5748 5747 5746
5762 5762 5762 5762 5762 5762 5762 5763 5763 5763 5764 5764 5764 5764 5765 5766 5767 5768 5769 5770 5771 5771 5772 5772 5772 5772 5771 5771 5770 5769 5767 5764 5762 5759 5757 5754 5752 5750 5748 5745 5743 5741 5740 5739
5770 5769 5768 5769 5768 5767 5769 5768 5768 5767 5767 5767 5768 5769 5769 5770 5770 5771 5772 5772 5772 5772 5772 5772 5771 5771 5770 5768 5767 5765 5763 5760 5757 5755 5752 5749 5746 5743 5741 5739 5737 5735 5734 5732
5777 5775 5774 5774 5773 5774 5774 5774 5772 5772 5771 5771 5771 5772 5773 5773 5773 5774 5774 5774 5773 5773 5772 5771 5770 5769 5767 5765 5764 5761 5758 5756 5753 5750 5746 5743 5740 5737 5735 5733 5731 5729 5728 5727
5782 5781 5782 5778 5778 5778 5778 5776 5776 5775 5775 5775 5775 5775 5776 5776 5776 5776 5776 5775 5774 5773 5772 5770 5768 5767 5765 5763 5760 5758 5755 5752 5749 5746 5742 5739 5735 5733 5730 5728 5726 5724 5722 5721
5788 5787 5784 5782 5780 5780 5779 5779 5778 5778 5778 5778 5778 5778 5778 5778 5778 5777 5776 5776 5774 5772 5770 5769 5767 5765 5763 5760 5757 5754 5751 5748 5745 5741 5738 5734 5731 5729 5726 5724 5722 5719 5717 5715
5790 5788 5786 5784 5782 5781 5781 5780 5780 5780 5780 5780 5780 5780 5780 5779 5779 5778 5777 5775 5773 5771 5769 5767 5765 5763 5760 5757 5754 5750 5746 5743 5740 5736 5733 5730 5727 5725 5722 5720 5717 5715 5712 5709
5792 5789 5787 5785 5783 5782 5781 5781 5781 5781 5781 5781 5781 5781 5781 5780 5779 5778 5777 5775 5773 5770 5768 5766 5763 5761 5758 5754 5750 5746 5743 5739 5735 5732 5729 5726 5723 5721 5719 5716 5713 5710 5707 5703
5794 5790 5787 5785 5783 5782 5782 5782 5782 5782 5782 5782 5782 5781 5781 5780 5779 5778 5777 5775 5773 5770 5767 5765 5762 5759 5755 5751 5748 5744 5740 5736 5733 5729 5726 5724 5721 5719 5716 5713 5710 5707 5703 5699
5793 5789 5786 5784 5782 5781 5781 5781 5781 5781 5782 5781 5781 5781 5780 5780 5779 5778 5776 5775 5773 5770 5767 5764 5761 5758 5754 5750 5746 5742 5739 5735 5732 5729 5726 5723 5721 5718 5715 5712 5708 5705 5701 5697
5794 5789 5785 5782 5780 5780 5780 5780 5781 5781 5781 5781 5781 5781 5780 5780 5779 5778 5776 5775 5773 5770 5767 5765 5762 5758 5754 5751 5747 5743 5739 5736 5733 5730 5727 5724 5721 5719 5716 5712 5709 5705 5702 5698
5796 5790 5785 5781 5779 5778 5778 5779 5779 5780 5779 5779 5780 5780 5780 5780 5779 5778 5776 5775 5773 5770 5768 5766 5763 5759 5756 5752 5749 5745 5742 5738 5735 5732 5730 5727 5724 5720 5717 5714 5710 5707 5704 5700
5798 5792 5786 5782 5779 5777 5777 5778 5779 5779 5778 5779 5779 5779 5780 5780 5779 5778 5777 5775 5773 5771 5769 5767 5764 5761 5757 5754 5751 5748 5745 5742 5739 5736 5733 5730 5727 5724 5720 5717 5714 5710 5707 5703
5801 5795 5789 5784 5780 5778 5777 5778 5778 5777 5777 5777 5778 5778 5779 5779 5779 5778 5777 5776 5774 5772 5770 5768 5766 5763 5760 5757 5754 5751 5748 5746 5743 5740 5737 5734 5731 5728 5725 5721 5718 5714 5711 5708
5802 5797 5792 5787 5783 5780 5778 5777 5777 5776 5776 5776 5776 5777 5777 5778 5778 5778 5777 5776 5775 5773 5771 5770 5768 5765 5762 5759 5757 5754 5752 5749 5747 5744 5741 5738 5735 5732 5729 5726 5723 5720 5716 5713
5802 5798 5794 5789 5785 5782 5779 5777 5776 5775 5774 5774 5774 5774 5775 5776 5776 5776 5776 5776 5775 5774 5772 5770 5769 5767 5764 5762 5759 5757 5755 5752 5750 5747 5745 5742 5739 5737 5734 5731 5729 5726 5723 5719
5802 5798 5795 5791 5787 5783 5780 5778 5776 5774 5773 5772 5772 5772 5773 5774 5774 5775 5775 5775 5775 5774 5772 5771 5769 5768 5766 5764 5761 5759 5757 5755 5753 5751 5748 5746 5743 5741 5738 5736 5734 5731 5729 5726
5800 5797 5794 5791 5788 5784 5781 5778 5776 5774 5772 5770 5769 5769 5770 5771 5772 5773 5774 5774 5774 5773 5772 5771 5770 5768 5767 5765 5763 5761 5759 5757 5755 5753 5751 5749 5747 5745 5742 5740 5738 5736 5734 5731
5796 5795 5792 5790 5787 5784 5781 5778 5776 5773 5771 5769 5768 5767 5768 5769 5770 5771 5772 5772 5772 5772 5771 5770 5769 5768 5767 5766 5764 5763 5761 5760 5758 5756 5754 5752 5750 5748 5746 5744 5742 5740 5738 5735
5792 5791 5789 5787 5785 5783 5780 5778 5775 5772 5770 5768 5766 5765 5764 5765 5766 5767 5768 5769 5770 5770 5770 5769 5769 5768 5767 5766 5765 5764 5763 5761 5760 5758 5757 5755 5753 5751 5749 5747 5745 5743 5741 5739
5786 5786 5785 5783 5782 5780 5778 5776 5773 5771 5768 5766 5764 5763 5762 5762 5762 5763 5764 5766 5767 5767 5768 5768 5767 5767 5766 5766 5765 5764 5763 5763 5761 5760 5759 5757 5755 5753 5751 5749 5747 5745 5743 5741
5780 5780 5779 5778 5777 5776 5774 5773 5771 5769 5766 5764 5762 5760 5758 5757 5757 5758 5760 5761 5762 5763 5765 5765 5766 5765 5765 5764 5764 5763 5763 5762 5762 5761 5759 5758 5756 5754 5753 5751 5749 5747 5745 5743
5772 5772 5772 5772 5771 5770 5769 5768 5767 5765 5763 5761 5758 5756 5755 5753 5752 5752 5754 5755 5757 5758 5760 5762 5763 5763 5763 5762 5762 5762 5762 5761 5761 5761 5760 5758 5757 5755 5753 5751 5749 5748 5746 5744
5762 5764 5764 5764 5764 5763 5763 5762 5761 5760 5759 5757 5755 5753 5751 5749 5748 5747 5747 5749 5750 5752 5754 5757 5758 5760 5760 5760 5760 5760 5760 5760 5760 5759 5759 5758 5756 5755 5753 5751 5750 5748 5746 5745